Regional Weather Roundup
Issued by NWS

Home | Current Version | Previous Version | Text Only | Print | Product List | Glossary On
Versions: 1 2 3 4 5 6 7 8 9 10 11 12 13 14 15 16 17 18 19 20 21 22 23 24 25 26 27 28 29 30 31 32 33 34 35 36 37 38 39 40 41 42 43 44 45 46 47 48 49 50
000
ASUS43 KMKX 241900
RWRWI

WISCONSIN REGIONAL WEATHER ROUNDUP
NATIONAL WEATHER SERVICE MILWAUKEE/SULLIVAN WI
200 PM CDT SAT JUN 24 2017

NOTE: "FAIR" INDICATES FEW OR NO CLOUDS BELOW 12,000 FEET WITH NO
SIGNIFICANT WEATHER AND/OR OBSTRUCTIONS TO VISIBILITY.

WIZ001-002-006>008-014>016-023>028-242000-
NORTHWEST WISCONSIN

CITY           SKY/WX    TMP DP  RH WIND       PRES   REMARKS
SUPERIOR ARPT  NOT AVBL
ASHLAND        CLOUDY    60  52  74 W10       29.94S
HAYWARD        PTSUNNY   63  41  44 VRB6      29.94F
SIREN          CLOUDY    61  41  48 W13       29.98R
CUMBERLAND     CLOUDY    61  39  44 W14G20    29.97F
RICE LAKE      CLOUDY    64  40  41 W16       29.99S
CHETEK         PTSUNNY   64  44  48 W12G17    29.97S
LADYSMITH      MOSUNNY   64  46  51 W16       29.97S
EAU CLAIRE     NOT AVBL
MENOMONIE      CLOUDY    64  44  47 W13       30.00S
NEW RICHMOND   CLOUDY    64  42  43 W9        29.99F
OSCEOLA        RAIN      60  46  59 W12G28    30.03R
$$

WIZ003>005-009-010-017-018-242000-
NORTH CENTRAL WISCONSIN

CITY           SKY/WX    TMP DP  RH WIND       PRES   REMARKS
MANITOWISH WTR CLOUDY    56  52  87 NW7       29.92F
ARBOR VITAE    CLOUDY    59  50  72 NW9       29.92S
WOODRUFF       CLOUDY    59  50  72 NW9       29.92S
RHINELANDER    LGT RAIN  57  50  77 W10G21    29.93S
EAGLE RIVER    CLOUDY    57  48  70 W9        29.91S
LAND O LAKES   DRIZZLE   55  53  93 W5        29.93S
PHILLIPS       CLOUDY    60  48  64 W8G16     29.94R
TOMAHAWK       NOT AVBL
MEDFORD        PTSUNNY   61  43  50 W16       29.95S
MERRILL        CLOUDY    64  46  51 W17       29.93F
$$

WIZ029-030-035-036-043>047-242000-
CENTRAL WISCONSIN

CITY           SKY/WX    TMP DP  RH WIND       PRES   REMARKS
WAUSAU         PTSUNNY   64  42  44 W16       29.93S
MOSINEE        PTSUNNY   61  43  51 W16G25    29.96S
MARSHFIELD     MOSUNNY   64  44  48 W18G26    29.97S
STEVENS POINT  PTSUNNY   64  40  41 W21G30    29.96S
WAUPACA        PTSUNNY   68  41  37 W16G25    29.95S
WAUTOMA        PTSUNNY   67  44  43 NW15G28   29.97S
WISC RAPIDS    PTSUNNY   66  43  43 W13G25    29.98S
CAMP DOUGLAS   NOT AVBL
$$

WIZ011>013-019>022-031-037>040-048>050-242000-
NORTHEAST WISCONSIN

CITY           SKY/WX    TMP DP  RH WIND       PRES   REMARKS
ANTIGO         CLOUDY    59  48  67 W14G23    29.94R
SHAWANO        CLOUDY    66  50  57 W9G20     29.92R
OCONTO         CLOUDY    67  53  61 W15G24    29.89R
STURGEON BAY     N/A     62  55  77 NW13        N/A
GREEN BAY      CLOUDY    68  53  58 W17G25    29.92R
MANITOWOC      NOT AVBL
APPLETON       PTSUNNY   66  39  37 W21G28    29.93S
CLINTONVILLE   CLOUDY    64  46  52 W12       29.93S
OSHKOSH        MOSUNNY   68  46  45 W17G24    29.94S
$$

WIZ032>034-041-042-053>061-242000-
SOUTHWEST WISCONSIN

CITY           SKY/WX    TMP DP  RH WIND       PRES   REMARKS
LA CROSSE      PTSUNNY   72  43  35 W15G25    30.01F
SPARTA         PTSUNNY   65  45  48 W14G22    30.02S
VIROQUA        MOSUNNY   65  46  51 W14G22    30.04S
BOSCOBEL       MOSUNNY   69  42  37 NW14G21   30.04S
PRAIRIE DU CHI MOSUNNY   69  39  34 NW13G25   30.05S
PLATTEVILLE    MOSUNNY   69  44  40 W16G24    30.06R
$$

WIZ056-057-062-063-064-067-068-242000-
SOUTH CENTRAL WISCONSIN

CITY           SKY/WX    TMP DP  RH WIND       PRES   REMARKS
REEDSBURG      MOSUNNY   66  46  48 W16G23    30.00S
BARABOO/DELLS  PTSUNNY   67  44  42 W13G22    29.99S
LONE ROCK      MOSUNNY   68  45  43 W17G26    30.02S
MINERAL POINT  MOSUNNY   68  43  40 W16G28    30.04R
MADISON        PTSUNNY   67  49  52 NW13G20   29.98F
MIDDLETON      PTSUNNY   71  51  50 W15G23    30.00S
WATERTOWN      PTSUNNY   67  46  47 W10G22    29.98S
MONROE         MOSUNNY   68  43  40 W20G28    30.02S
JANESVILLE     PTSUNNY   70  45  40 W14G20    29.99F
$$

WIZ051-052-058>065-066-070>072-242000-
SOUTHEAST WISCONSIN

CITY           SKY/WX    TMP DP  RH WIND       PRES   REMARKS
MILWAUKEE      PTSUNNY   72  40  31 W17G28    29.97S
WAUKESHA       PTSUNNY   66  45  45 W14       29.98F
MILWAUKEE/TIMM PTSUNNY   70  41  35 W20       29.98S
RACINE         PTSUNNY   70  44  39 NW17G25   29.98F
KENOSHA        MOSUNNY   71  49  45 W15G22    29.98S
FOND DU LAC    PTSUNNY   69  43  38 W15       29.95F
SHEBOYGAN      SUNNY     68  47  46 W22G32    29.93S
WEST BEND      MOSUNNY   66  41  39 W14G24    29.96S
JUNEAU         CLOUDY    67  46  47 NW9G22    29.98S
$$

LSZ147-162-242000-
LAKE SUPERIOR

STATION/POSITION TIME  TEMP    WIND        PRES    WAVE
                       AIR SEA DIR/SP/G            HT/PER
                 (UTC) (F)     (DEG/KT/KT) (MB)    (FT/S)
W MID LAKE BUOY  1750   45 39  260/  8/ 10 1012.2R   1/ 4
DEVILS ISLAND    1800   53     240/ 17/ 20 1012.7R
SAXON HARBOR     1830   60     260/  9/ 14 1012.9S
$$

LMZ867-665-643>646-242000-
LAKE MICHIGAN

STATION/POSITION TIME  TEMP    WIND        PRES    WAVE
                       AIR SEA DIR/SP/G            HT/PER
                 (UTC) (F)     (DEG/KT/KT) (MB)    (FT/S)
CHAMBERS ISLAND  1840   61     250/  4/  6 1011.5R
S GREEN BAY BUOY 1830   65     260/ 17/ 21 1011.8R
N MID LAKE BUOY  1750   60 58  220/  4/  6 1011.8R   1
NORTHPORT PIER   1840   64     270/  4/  9 1011.5R
KEWAUNEE LAKESHO 1830   66     280/ 10/ 16 1011.9R
SHEBOYGAN LAKESH 1800   67     260/ 19/ 22 1012.9R
PORT WASHINGTON  1840   70     260/ 11/ 19 1014.6F
ATWATER BUOY     1709   66 60  270/ 12/ 16 1014.4R
MILWAUKEE LAKESH 1830   67     300/ 17/ 21   N/A
S MID LAKE BUOY  1750   63 62  280/  6/  8 1014.7R   2/ 4
KENOSHA   LAKESH 1800   69     280/ 13/ 19 1014.6
$$

TC  - TEMPERATURE IN CELSIUS
VSB - VISIBILITY IN STATUTE MILES
WCI - WIND CHILL INDEX
HX  - HEAT INDEX




USA.gov is the U.S. government's official web portal to all federal, state and local government web resources and services.